Year,Month,Day,Hour,Minute,Value (Times are PST for temperature in C)
2017,06,25,08,00,22.10
2017,06,25,08,01,22.10
2017,06,25,08,02,22.20
2017,06,25,08,03,22.20
2017,06,25,08,04,22.30
2017,06,25,08,05,22.40
2017,06,25,08,06,22.50
2017,06,25,08,07,22.60
2017,06,25,08,08,22.70
2017,06,25,08,09,22.70
2017,06,25,08,10,22.80
2017,06,25,08,11,22.80
2017,06,25,08,12,22.80
2017,06,25,08,13,22.80
2017,06,25,08,14,22.80
2017,06,25,08,15,22.80
2017,06,25,08,16,22.80
2017,06,25,08,17,22.80
2017,06,25,08,18,22.90
2017,06,25,08,19,22.90
2017,06,25,08,20,23.00
2017,06,25,08,21,23.00
2017,06,25,08,22,23.00
2017,06,25,08,23,23.00
2017,06,25,08,24,23.00
2017,06,25,08,25,23.10
2017,06,25,08,26,23.10
2017,06,25,08,27,23.20
2017,06,25,08,28,23.10
2017,06,25,08,29,23.10
2017,06,25,08,30,23.20
2017,06,25,08,31,23.20
2017,06,25,08,32,23.20
2017,06,25,08,33,23.20
2017,06,25,08,34,23.20
2017,06,25,08,35,23.20
2017,06,25,08,36,23.20
2017,06,25,08,37,23.20
2017,06,25,08,38,23.20
2017,06,25,08,39,23.30
2017,06,25,08,40,23.30
2017,06,25,08,41,23.40
2017,06,25,08,42,23.50
2017,06,25,08,43,23.60
2017,06,25,08,44,23.60
2017,06,25,08,45,23.70
2017,06,25,08,46,23.70
2017,06,25,08,47,23.80
2017,06,25,08,48,23.80
2017,06,25,08,49,23.80
2017,06,25,08,50,23.80
2017,06,25,08,51,23.80
2017,06,25,08,52,23.80
2017,06,25,08,53,23.80
2017,06,25,08,54,23.80
2017,06,25,08,55,23.80
2017,06,25,08,56,23.80
2017,06,25,08,57,23.80
2017,06,25,08,58,23.80
2017,06,25,08,59,23.80
2017,06,25,09,00,23.90
2017,06,25,09,01,23.90
2017,06,25,09,02,24.00
2017,06,25,09,03,24.00
2017,06,25,09,04,24.00
2017,06,25,09,05,24.00
2017,06,25,09,06,24.00
2017,06,25,09,07,24.00
2017,06,25,09,08,24.00
2017,06,25,09,09,24.10
2017,06,25,09,10,24.10
2017,06,25,09,11,24.20
2017,06,25,09,12,24.20
2017,06,25,09,13,24.20
2017,06,25,09,14,24.20
2017,06,25,09,15,24.30
2017,06,25,09,16,24.30
2017,06,25,09,17,24.30
2017,06,25,09,18,24.40
2017,06,25,09,19,24.30
2017,06,25,09,20,24.30
2017,06,25,09,21,24.40
2017,06,25,09,22,24.40
2017,06,25,09,23,24.30
2017,06,25,09,24,24.40
2017,06,25,09,25,24.40
2017,06,25,09,26,24.40
2017,06,25,09,27,24.50
2017,06,25,09,28,24.60
2017,06,25,09,29,24.70
2017,06,25,09,30,24.70
2017,06,25,09,31,24.70
2017,06,25,09,32,24.70
2017,06,25,09,33,24.70
2017,06,25,09,34,24.80
2017,06,25,09,35,24.80
2017,06,25,09,36,24.90
2017,06,25,09,37,25.00
2017,06,25,09,38,25.00
2017,06,25,09,39,25.00
2017,06,25,09,40,25.10
2017,06,25,09,41,25.20
2017,06,25,09,42,25.20
2017,06,25,09,43,25.30
2017,06,25,09,44,25.30
2017,06,25,09,45,25.30
2017,06,25,09,46,25.30
2017,06,25,09,47,25.20
2017,06,25,09,48,25.20
2017,06,25,09,49,25.20
2017,06,25,09,50,25.20
2017,06,25,09,51,25.20
2017,06,25,09,52,25.20
2017,06,25,09,53,25.20
2017,06,25,09,54,25.10
2017,06,25,09,55,25.00
2017,06,25,09,56,25.00
2017,06,25,09,57,25.00
2017,06,25,09,58,25.10
2017,06,25,09,59,25.10
2017,06,25,10,00,25.10
2017,06,25,10,01,25.10
2017,06,25,10,02,25.20
2017,06,25,10,03,25.20
2017,06,25,10,04,25.20
2017,06,25,10,05,25.30
2017,06,25,10,06,25.30
2017,06,25,10,07,25.30
2017,06,25,10,08,25.40
2017,06,25,10,09,25.50
2017,06,25,10,10,25.60
2017,06,25,10,11,25.50
2017,06,25,10,12,25.40
2017,06,25,10,13,25.40
2017,06,25,10,14,25.40
2017,06,25,10,15,25.50
2017,06,25,10,16,25.60
2017,06,25,10,17,25.70
2017,06,25,10,18,25.60
2017,06,25,10,19,25.50
2017,06,25,10,20,25.40
2017,06,25,10,21,25.40
2017,06,25,10,22,25.50
2017,06,25,10,23,25.60
2017,06,25,10,24,25.80
2017,06,25,10,25,25.90
2017,06,25,10,26,26.00
2017,06,25,10,27,26.10
2017,06,25,10,28,26.10
2017,06,25,10,29,26.10
2017,06,25,10,30,26.10
2017,06,25,10,31,25.90
2017,06,25,10,32,25.80
2017,06,25,10,33,25.70
2017,06,25,10,34,25.60
2017,06,25,10,35,25.70
2017,06,25,10,36,25.60
2017,06,25,10,37,25.60
2017,06,25,10,38,25.60
2017,06,25,10,39,25.60
2017,06,25,10,40,25.70
2017,06,25,10,41,25.70
2017,06,25,10,42,25.70
2017,06,25,10,43,25.60
2017,06,25,10,44,25.60
2017,06,25,10,45,25.70
2017,06,25,10,46,25.70
2017,06,25,10,47,25.80
2017,06,25,10,48,25.70
2017,06,25,10,49,25.60
2017,06,25,10,50,25.60
2017,06,25,10,51,25.50
2017,06,25,10,52,25.40
2017,06,25,10,53,25.40
2017,06,25,10,54,25.50
2017,06,25,10,55,25.60
2017,06,25,10,56,25.60
2017,06,25,10,57,25.60
2017,06,25,10,58,25.60
2017,06,25,10,59,25.60
2017,06,25,11,00,25.60
2017,06,25,11,01,25.50
2017,06,25,11,02,25.60
2017,06,25,11,03,25.60
2017,06,25,11,04,25.60
2017,06,25,11,05,25.50
2017,06,25,11,06,25.40
2017,06,25,11,07,25.40
2017,06,25,11,08,25.40
2017,06,25,11,09,25.40
2017,06,25,11,10,25.40
2017,06,25,11,11,25.30
2017,06,25,11,12,25.40
2017,06,25,11,13,25.50
2017,06,25,11,14,25.50
2017,06,25,11,15,25.40
2017,06,25,11,16,25.40
2017,06,25,11,17,25.50
2017,06,25,11,18,25.50
2017,06,25,11,19,25.40
2017,06,25,11,20,25.40
2017,06,25,11,21,25.40
2017,06,25,11,22,25.50
2017,06,25,11,23,25.60
2017,06,25,11,24,25.70
2017,06,25,11,25,25.70
2017,06,25,11,26,25.60
2017,06,25,11,27,25.50
2017,06,25,11,28,25.40
2017,06,25,11,29,25.40
2017,06,25,11,30,25.50
2017,06,25,11,31,25.60
2017,06,25,11,32,25.60
2017,06,25,11,33,25.80
2017,06,25,11,34,25.90
2017,06,25,11,35,25.90
2017,06,25,11,36,25.90
2017,06,25,11,37,25.80
2017,06,25,11,38,25.80
2017,06,25,11,39,25.80
2017,06,25,11,40,25.90
2017,06,25,11,41,26.00
2017,06,25,11,42,25.90
2017,06,25,11,43,25.90
2017,06,25,11,44,25.70
2017,06,25,11,45,25.70
2017,06,25,11,46,25.60
2017,06,25,11,47,25.60
2017,06,25,11,48,25.60
2017,06,25,11,49,25.70
2017,06,25,11,50,25.70
2017,06,25,11,51,25.70
2017,06,25,11,52,25.80
2017,06,25,11,53,25.80
2017,06,25,11,54,25.90
2017,06,25,11,55,25.90
2017,06,25,11,56,25.90
2017,06,25,11,57,25.90
2017,06,25,11,58,25.90
2017,06,25,11,59,25.90
2017,06,25,12,00,26.00
2017,06,25,12,01,26.10
2017,06,25,12,02,26.10
2017,06,25,12,03,26.10
2017,06,25,12,04,26.10
2017,06,25,12,05,26.20
2017,06,25,12,06,26.20
2017,06,25,12,07,26.20
2017,06,25,12,08,26.20
2017,06,25,12,09,26.30
2017,06,25,12,10,26.40
2017,06,25,12,11,26.40
2017,06,25,12,12,26.60
2017,06,25,12,13,26.60
2017,06,25,12,14,26.70
2017,06,25,12,15,26.70
2017,06,25,12,16,26.70
2017,06,25,12,17,26.70
2017,06,25,12,18,26.70
2017,06,25,12,19,26.70
2017,06,25,12,20,26.70
2017,06,25,12,21,26.70
2017,06,25,12,22,26.80
2017,06,25,12,23,26.90
2017,06,25,12,24,27.00
2017,06,25,12,25,27.10
2017,06,25,12,26,27.10
2017,06,25,12,27,27.10
2017,06,25,12,28,27.00
2017,06,25,12,29,27.00
2017,06,25,12,30,27.00
2017,06,25,12,31,26.90
2017,06,25,12,32,26.90
2017,06,25,12,33,26.90
2017,06,25,12,34,26.90
2017,06,25,12,35,27.00
2017,06,25,12,36,27.00
2017,06,25,12,37,27.00
2017,06,25,12,38,26.90
2017,06,25,12,39,26.90
2017,06,25,12,40,26.90
2017,06,25,12,41,26.90
2017,06,25,12,42,27.00
2017,06,25,12,43,27.00
2017,06,25,12,44,27.00
2017,06,25,12,45,26.80
2017,06,25,12,46,26.80
2017,06,25,12,47,26.80
2017,06,25,12,48,26.70
2017,06,25,12,49,26.70
2017,06,25,12,50,26.70
2017,06,25,12,51,26.70
2017,06,25,12,52,26.70
2017,06,25,12,53,26.70
2017,06,25,12,54,26.90
2017,06,25,12,55,27.10
2017,06,25,12,56,27.30
2017,06,25,12,57,27.30
2017,06,25,12,58,27.30
2017,06,25,12,59,27.20
2017,06,25,13,00,27.20
2017,06,25,13,01,27.20
2017,06,25,13,02,27.20
2017,06,25,13,03,27.20
2017,06,25,13,04,27.20
2017,06,25,13,05,27.20
2017,06,25,13,06,27.10
2017,06,25,13,07,27.20
2017,06,25,13,08,27.20
2017,06,25,13,09,27.20
2017,06,25,13,10,27.20
2017,06,25,13,11,27.20
2017,06,25,13,12,27.20
2017,06,25,13,13,27.10
2017,06,25,13,14,27.00
2017,06,25,13,15,26.90
2017,06,25,13,16,26.70
2017,06,25,13,17,26.60
2017,06,25,13,18,26.50
2017,06,25,13,19,26.40
2017,06,25,13,20,26.40
2017,06,25,13,21,26.30
2017,06,25,13,22,26.40
2017,06,25,13,23,26.50
2017,06,25,13,24,26.60
2017,06,25,13,25,26.80
2017,06,25,13,26,26.90
2017,06,25,13,27,27.10
2017,06,25,13,28,27.20
2017,06,25,13,29,27.30
2017,06,25,13,30,27.40
2017,06,25,13,31,27.50
2017,06,25,13,32,27.60
2017,06,25,13,33,27.70
2017,06,25,13,34,27.70
2017,06,25,13,35,27.70
2017,06,25,13,36,27.80
2017,06,25,13,37,28.00
2017,06,25,13,38,28.10
2017,06,25,13,39,28.30
2017,06,25,13,40,28.30
2017,06,25,13,41,28.30
2017,06,25,13,42,28.30
2017,06,25,13,43,28.40
2017,06,25,13,44,28.40
2017,06,25,13,45,28.50
2017,06,25,13,46,28.60
2017,06,25,13,47,28.80
2017,06,25,13,48,28.90
2017,06,25,13,49,29.00
2017,06,25,13,50,29.10
2017,06,25,13,51,29.10
2017,06,25,13,52,29.10
2017,06,25,13,53,29.10
2017,06,25,13,54,29.10
2017,06,25,13,55,29.00
2017,06,25,13,56,29.00
2017,06,25,13,57,29.00
2017,06,25,13,58,29.00
2017,06,25,13,59,29.10
2017,06,25,14,00,29.20
2017,06,25,14,01,29.20
2017,06,25,14,02,29.20
2017,06,25,14,03,29.20
2017,06,25,14,04,29.10
2017,06,25,14,05,29.00
2017,06,25,14,06,29.00
2017,06,25,14,07,29.10
2017,06,25,14,08,29.20
2017,06,25,14,09,29.20
2017,06,25,14,10,29.30
2017,06,25,14,11,29.30
2017,06,25,14,12,29.30
2017,06,25,14,13,29.30
2017,06,25,14,14,29.30
2017,06,25,14,15,29.30
2017,06,25,14,16,29.30
2017,06,25,14,17,29.20
2017,06,25,14,18,29.20
2017,06,25,14,19,29.30
2017,06,25,14,20,29.30
2017,06,25,14,21,29.40
2017,06,25,14,22,29.60
2017,06,25,14,23,29.70
2017,06,25,14,24,29.70
2017,06,25,14,25,29.80
2017,06,25,14,26,29.80
2017,06,25,14,27,29.80
2017,06,25,14,28,29.80
2017,06,25,14,29,29.80
2017,06,25,14,30,29.80
2017,06,25,14,31,29.90
2017,06,25,14,32,30.10
2017,06,25,14,33,30.30
2017,06,25,14,34,30.30
2017,06,25,14,35,30.30
2017,06,25,14,36,30.20
2017,06,25,14,37,30.10
2017,06,25,14,38,30.10
2017,06,25,14,39,30.00
2017,06,25,14,40,29.90
2017,06,25,14,41,29.90
2017,06,25,14,42,29.90
2017,06,25,14,43,29.80
2017,06,25,14,44,29.70
2017,06,25,14,45,29.70
2017,06,25,14,46,29.70
2017,06,25,14,47,29.70
2017,06,25,14,48,29.80
2017,06,25,14,49,29.90
2017,06,25,14,50,29.90
2017,06,25,14,51,29.80
2017,06,25,14,52,29.80
2017,06,25,14,53,29.80
2017,06,25,14,54,29.80
2017,06,25,14,55,29.80
2017,06,25,14,56,29.90
2017,06,25,14,57,29.90
2017,06,25,14,58,29.90
2017,06,25,14,59,29.80
2017,06,25,15,00,29.80
2017,06,25,15,01,29.70
2017,06,25,15,02,29.60
2017,06,25,15,03,29.60
2017,06,25,15,04,29.60
2017,06,25,15,05,29.50
2017,06,25,15,06,29.50
2017,06,25,15,07,29.50
2017,06,25,15,08,29.40
2017,06,25,15,09,29.30
2017,06,25,15,10,29.30
2017,06,25,15,11,29.20
2017,06,25,15,12,29.10
2017,06,25,15,13,29.10
2017,06,25,15,14,29.10
2017,06,25,15,15,29.10
2017,06,25,15,16,29.10
2017,06,25,15,17,29.10
2017,06,25,15,18,29.10
2017,06,25,15,19,29.00
2017,06,25,15,20,29.00
2017,06,25,15,21,29.00
2017,06,25,15,22,29.10
2017,06,25,15,23,29.10
2017,06,25,15,24,29.10
2017,06,25,15,25,29.20
2017,06,25,15,26,29.20
2017,06,25,15,27,29.30
2017,06,25,15,28,29.30
2017,06,25,15,29,29.30
2017,06,25,15,30,29.30
2017,06,25,15,31,29.30
2017,06,25,15,32,29.30
2017,06,25,15,33,29.30
2017,06,25,15,34,29.20
2017,06,25,15,35,29.10
2017,06,25,15,36,28.90
2017,06,25,15,37,28.60
2017,06,25,15,38,28.20
2017,06,25,15,39,27.80
2017,06,25,15,40,27.50
2017,06,25,15,41,27.10
2017,06,25,15,42,26.90
2017,06,25,15,43,26.50
2017,06,25,15,44,26.30
2017,06,25,15,45,26.20
2017,06,25,15,46,26.10
2017,06,25,15,47,26.10
2017,06,25,15,48,26.10
2017,06,25,15,49,26.20
2017,06,25,15,50,26.20
2017,06,25,15,51,26.20
2017,06,25,15,52,26.30
2017,06,25,15,53,26.50
2017,06,25,15,54,26.70
2017,06,25,15,55,26.90
2017,06,25,15,56,27.00
2017,06,25,15,57,27.20
2017,06,25,15,58,27.30
2017,06,25,15,59,27.30
2017,06,25,16,00,27.30
2017,06,25,16,01,27.40
2017,06,25,16,02,27.50
2017,06,25,16,03,27.60
2017,06,25,16,04,27.80
2017,06,25,16,05,27.90
2017,06,25,16,06,27.90
2017,06,25,16,07,28.00
2017,06,25,16,08,27.90
2017,06,25,16,09,27.80
2017,06,25,16,10,27.80
2017,06,25,16,11,27.70
2017,06,25,16,12,27.70
2017,06,25,16,13,27.80
2017,06,25,16,14,27.80
2017,06,25,16,15,27.80
2017,06,25,16,16,27.80
2017,06,25,16,17,27.80
2017,06,25,16,18,27.80
2017,06,25,16,19,27.80
2017,06,25,16,20,27.90
2017,06,25,16,21,27.90
2017,06,25,16,22,28.00
2017,06,25,16,23,28.20
2017,06,25,16,24,28.30
2017,06,25,16,25,28.40
2017,06,25,16,26,28.50
2017,06,25,16,27,28.60
2017,06,25,16,28,28.50
2017,06,25,16,29,28.40
2017,06,25,16,30,28.30
2017,06,25,16,31,28.20
2017,06,25,16,32,28.20
2017,06,25,16,33,28.20
2017,06,25,16,34,28.30
2017,06,25,16,35,28.30
2017,06,25,16,36,28.20
2017,06,25,16,37,28.10
2017,06,25,16,38,28.00
2017,06,25,16,39,27.90
2017,06,25,16,40,27.90
2017,06,25,16,41,27.80
2017,06,25,16,42,27.80
2017,06,25,16,43,27.90
2017,06,25,16,44,28.00
2017,06,25,16,45,28.10
2017,06,25,16,46,28.20
2017,06,25,16,47,28.20
2017,06,25,16,48,28.20
2017,06,25,16,49,28.30
2017,06,25,16,50,28.30
2017,06,25,16,51,28.30
2017,06,25,16,52,28.40
2017,06,25,16,53,28.40
2017,06,25,16,54,28.30
2017,06,25,16,55,28.30
2017,06,25,16,56,28.20
2017,06,25,16,57,28.20
2017,06,25,16,58,28.10
2017,06,25,16,59,28.10
2017,06,25,17,00,28.00
2017,06,25,17,01,27.90
2017,06,25,17,02,27.90
2017,06,25,17,03,27.90
2017,06,25,17,04,27.90
2017,06,25,17,05,27.90
2017,06,25,17,06,28.00
2017,06,25,17,07,28.00
2017,06,25,17,08,28.00
2017,06,25,17,09,28.00
2017,06,25,17,10,27.90
2017,06,25,17,11,27.80
2017,06,25,17,12,27.70
2017,06,25,17,13,27.60
2017,06,25,17,14,27.40
2017,06,25,17,15,27.20
2017,06,25,17,16,27.10
2017,06,25,17,17,27.10
2017,06,25,17,18,27.10
2017,06,25,17,19,27.10
2017,06,25,17,20,27.10
2017,06,25,17,21,27.10
2017,06,25,17,22,27.10
2017,06,25,17,23,27.20
2017,06,25,17,24,27.20
2017,06,25,17,25,27.20
2017,06,25,17,26,27.20
2017,06,25,17,27,27.20
2017,06,25,17,28,27.10
2017,06,25,17,29,27.10
2017,06,25,17,30,27.10
2017,06,25,17,31,27.10
2017,06,25,17,32,27.10
2017,06,25,17,33,27.10
2017,06,25,17,34,27.10
2017,06,25,17,35,27.20
2017,06,25,17,36,27.20
2017,06,25,17,37,27.20
2017,06,25,17,38,27.20
2017,06,25,17,39,27.30
2017,06,25,17,40,27.30
2017,06,25,17,41,27.40
2017,06,25,17,42,27.40
2017,06,25,17,43,27.50
2017,06,25,17,44,27.50
2017,06,25,17,45,27.50
2017,06,25,17,46,27.50
2017,06,25,17,47,27.60
2017,06,25,17,48,27.60
2017,06,25,17,49,27.70
2017,06,25,17,50,27.70
2017,06,25,17,51,27.80
2017,06,25,17,52,27.80
2017,06,25,17,53,27.80
2017,06,25,17,54,27.80
2017,06,25,17,55,27.90
2017,06,25,17,56,27.90
2017,06,25,17,57,27.90
2017,06,25,17,58,27.90
2017,06,25,17,59,27.90
2017,06,25,18,00,27.90
2017,06,25,18,01,27.90
2017,06,25,18,02,27.90
2017,06,25,18,03,27.90
2017,06,25,18,04,27.80
2017,06,25,18,05,27.80
2017,06,25,18,06,27.80
2017,06,25,18,07,27.80
2017,06,25,18,08,27.80
2017,06,25,18,09,27.70
2017,06,25,18,10,27.60
2017,06,25,18,11,27.60
2017,06,25,18,12,27.50
2017,06,25,18,13,27.50
2017,06,25,18,14,27.50
2017,06,25,18,15,27.60
2017,06,25,18,16,27.60
2017,06,25,18,17,27.60
2017,06,25,18,18,27.50
2017,06,25,18,19,27.50
2017,06,25,18,20,27.40
2017,06,25,18,21,27.40
2017,06,25,18,22,27.30
2017,06,25,18,23,27.30
2017,06,25,18,24,27.20
2017,06,25,18,25,27.20
2017,06,25,18,26,27.10
2017,06,25,18,27,27.10
2017,06,25,18,28,27.00
2017,06,25,18,29,26.90
2017,06,25,18,30,26.80
2017,06,25,18,31,26.70
2017,06,25,18,32,26.60
2017,06,25,18,33,26.50
2017,06,25,18,34,26.40
2017,06,25,18,35,26.40
2017,06,25,18,36,26.30
2017,06,25,18,37,26.30
2017,06,25,18,38,26.30
2017,06,25,18,39,26.30
2017,06,25,18,40,26.30
2017,06,25,18,41,26.20
2017,06,25,18,42,26.20
2017,06,25,18,43,26.10
2017,06,25,18,44,26.00
2017,06,25,18,45,25.90
2017,06,25,18,46,25.80
2017,06,25,18,47,25.70
2017,06,25,18,48,25.50
2017,06,25,18,49,25.30
2017,06,25,18,50,25.20
2017,06,25,18,51,25.10
2017,06,25,18,52,25.10
2017,06,25,18,53,25.10
2017,06,25,18,54,25.10
2017,06,25,18,55,25.00
2017,06,25,18,56,25.00
2017,06,25,18,57,25.00
2017,06,25,18,58,25.00
2017,06,25,18,59,25.10
2017,06,25,19,00,25.10
2017,06,25,19,01,25.20
2017,06,25,19,02,25.30
2017,06,25,19,03,25.40
2017,06,25,19,04,25.50
2017,06,25,19,05,25.70
2017,06,25,19,06,25.80
2017,06,25,19,07,26.00
2017,06,25,19,08,26.20
2017,06,25,19,09,26.30
2017,06,25,19,10,26.50
2017,06,25,19,11,26.60
2017,06,25,19,12,26.80
2017,06,25,19,13,26.80
2017,06,25,19,14,26.90
2017,06,25,19,15,27.00
2017,06,25,19,16,27.00
2017,06,25,19,17,27.10
2017,06,25,19,18,27.10
2017,06,25,19,19,27.10
2017,06,25,19,20,27.10
2017,06,25,19,21,27.00
2017,06,25,19,22,27.00
2017,06,25,19,23,27.10
2017,06,25,19,24,27.10
2017,06,25,19,25,27.10
2017,06,25,19,26,27.10
2017,06,25,19,27,27.10
2017,06,25,19,28,27.20
2017,06,25,19,29,27.20
2017,06,25,19,30,27.20
2017,06,25,19,31,27.10
2017,06,25,19,32,27.10
2017,06,25,19,33,27.10
2017,06,25,19,34,27.00
2017,06,25,19,35,27.00
2017,06,25,19,36,27.00
2017,06,25,19,37,26.90
2017,06,25,19,38,26.90
2017,06,25,19,39,26.90
2017,06,25,19,40,26.80
2017,06,25,19,41,26.80
2017,06,25,19,42,26.80
2017,06,25,19,43,26.80
2017,06,25,19,44,26.80
2017,06,25,19,45,26.80
2017,06,25,19,46,26.80
2017,06,25,19,47,26.80
2017,06,25,19,48,26.80
2017,06,25,19,49,26.80
2017,06,25,19,50,26.80
